Zapata, TX

2:57 PM CDT on May 24, 2017 (GMT -0500)
Zapata

Weather History for KAPY - October, 2012

Change the Weather History Date:

Tuesday, October 2, 2012

  Actual Average (KLRD) Record (KLRD)
Temperature  
Mean Temperature 76 °F -  
Max Temperature 87 °F 85 °F 105 °F (1926)
Min Temperature 65 °F 66 °F 46 °F (1908)
Cooling Degree Days 11    
Growing Degree Days 26 (Base 50)    
Moisture  
Dew Point 58 °F    
Average Humidity 60    
Maximum Humidity 98    
Minimum Humidity 25    
Precipitation  
Precipitation 0.00 in - - ()
Sea Level Pressure  
Sea Level Pressure 29.95 in    
Wind  
Wind Speed 3 mph (NNW)    
Max Wind Speed 10 mph    
Max Gust Speed 18 mph    
Visibility 10 miles    
Events      
Averages and records for this station are not official NWS values.
T = Trace of Precipitation, MM = Missing Value Source: NWS Daily Summary

Daily Weather History Graph

Daily Weather History Graph

Search for Another Location

Airport or City:

Trip Planner

Search our weather history database for the weather conditions in past years. The results will help you decide how hot, cold, wet, or windy it might be!

Date:

Astronomy

Oct. 02, 2012 Rise Set
Actual Time 7:30 AM CDT 7:21 PM CDT
Civil Twilight 7:07 AM CDT 7:44 PM CDT
Nautical Twilight 6:40 AM CDT 8:11 PM CDT
Astronomical Twilight 6:13 AM CDT 8:38 PM CDT
Moon 8:54 PM CDT (10/2) 9:41 AM CDT (10/2)
Length of Visible Light 12h 37m
Length of Day
11h 51m
Waning Gibbous, 94% of the Moon is Illuminated
Oct 2
Waning Gibbous
Oct 8
Last Quarter
Oct 15
New
Oct 21
First Quarter
Oct 29
Full

Hourly Weather History & Observations

Time (CDT) Temp. Heat Index Dew Point Humidity Pressure Visibility Wind Dir Wind Speed Gust Speed Precip Events Conditions
12:35 AM 68.9 °F - 66.4 °F 92% 29.93 in 10.0 mi Calm Calm - N/A   Clear
1:55 AM 67.8 °F - 65.5 °F 92% 29.94 in 10.0 mi Calm Calm - N/A   Clear
3:35 AM 67.3 °F - 64.9 °F 92% 29.93 in 10.0 mi West 3.5 mph - N/A   Clear
3:55 AM 66.7 °F - 65.8 °F 97% 29.93 in 10.0 mi Calm Calm - N/A   Clear
4:35 AM 67.1 °F - 65.5 °F 95% 29.93 in 10.0 mi Calm Calm - N/A   Clear
5:35 AM 66.4 °F - 65.5 °F 97% 29.94 in 10.0 mi NNW 4.6 mph - N/A   Clear
6:15 AM 66.2 °F - 65.3 °F 97% 29.95 in 10.0 mi Calm Calm - N/A   Clear
6:35 AM 65.3 °F - 64.8 °F 98% 29.96 in 7.0 mi Calm Calm - N/A   Clear
8:35 AM 69.8 °F - 64.4 °F 83% 29.99 in 10.0 mi NW 3.5 mph - N/A   Clear
8:55 AM 70.9 °F - 64.8 °F 81% 30.00 in 10.0 mi Calm Calm - N/A   Clear
9:35 AM 75.6 °F - 64.8 °F 69% 30.00 in 10.0 mi NW 6.9 mph - N/A   Clear
9:55 AM 76.8 °F - 64.0 °F 65% 30.01 in 10.0 mi North 8.1 mph - N/A   Clear
10:15 AM 78.1 °F - 63.3 °F 60% 30.01 in 10.0 mi North 9.2 mph - N/A   Clear
11:35 AM 81.5 °F 81.6 °F 58.1 °F 45% 30.01 in 10.0 mi North 10.4 mph - N/A   Clear
11:55 AM 82.0 °F 81.7 °F 57.0 °F 42% 30.01 in 10.0 mi North 9.2 mph 16.1 mph N/A   Clear
2:55 PM 86.2 °F - 52.7 °F 32% 29.94 in 10.0 mi North 9.2 mph 18.4 mph N/A   Scattered Clouds
3:35 PM 86.0 °F - 52.2 °F 31% 29.92 in 10.0 mi Calm Calm - N/A   Scattered Clouds
3:55 PM 86.4 °F - 52.2 °F 31% 29.92 in 10.0 mi NW 6.9 mph - N/A   Scattered Clouds
4:15 PM 87.1 °F - 52.0 °F 30% 29.92 in 10.0 mi North 5.8 mph - N/A   Scattered Clouds
5:15 PM 87.8 °F - 49.3 °F 26% 29.91 in 10.0 mi NW 8.1 mph - N/A   Clear
5:55 PM 86.9 °F - 47.3 °F 25% 29.91 in 10.0 mi NW 9.2 mph 16.1 mph N/A   Clear
6:15 PM 86.5 °F - 46.8 °F 25% 29.91 in 10.0 mi North 8.1 mph - N/A   Clear
6:35 PM 85.8 °F - 46.9 °F 26% 29.91 in 10.0 mi North 5.8 mph - N/A   Clear
7:35 PM 81.1 °F - 48.9 °F 32% 29.92 in 10.0 mi Calm Calm - N/A   Clear
9:15 PM 72.1 °F - 55.8 °F 56% 29.95 in 10.0 mi ENE 3.5 mph - N/A   Clear
9:55 PM 71.6 °F - 54.7 °F 55% 29.96 in 4.0 mi ENE 3.5 mph - N/A   Haze
10:55 PM 72.3 °F - 51.3 °F 47% 29.97 in 10.0 mi Calm Calm - N/A   Scattered Clouds
11:35 PM 71.8 °F - 51.6 °F 49% 29.97 in 10.0 mi Calm Calm - N/A   Scattered Clouds